| time (UTC) | temp F | wind direction | speed knots | gust knots | rain 1hr in | rain 24hr in | rain mn in | humidity % | barometer mb |
| 20260507180506 | 82 | 1 | 7.8 | 13.0 | 0.00 | 0.00 | 0.00 | 41 | 1005.1 |
| 20260507180211 | 82 | 351 | 6.1 | 13.0 | 0.00 | 0.00 | 0.00 | 41 | 1005.1 |
| 20260507180007 | 82 | 1 | 2.6 | 13.0 | 0.00 | 0.00 | 0.00 | 42 | 1005.0 |
| 20260507175712 | 82 | 328 | 7.8 | 13.0 | 0.00 | 0.00 | 0.00 | 42 | 1005.5 |
| 20260507175507 | 81 | 326 | 10.4 | 13.0 | 0.00 | 0.00 | 0.00 | 46 | 1005.3 |
| 20260507175212 | 80 | 313 | 6.1 | 13.0 | 0.00 | 0.00 | 0.00 | 47 | 1005.3 |
| 20260507175006 | 80 | 301 | 4.3 | 13.0 | 0.00 | 0.00 | 0.00 | 47 | 1005.2 |
| 20260507174711 | 81 | 284 | 3.5 | 13.0 | 0.00 | 0.00 | 0.00 | 47 | 1005.4 |
| 20260507174505 | 81 | 270 | 7.8 | 13.0 | 0.00 | 0.00 | 0.00 | 46 | 1005.5 |
| 20260507174213 | 81 | 233 | 6.1 | 13.0 | 0.00 | 0.00 | 0.00 | 47 | 1005.6 |
| 20260507174007 | 80 | 336 | 3.5 | 12.2 | 0.00 | 0.00 | 0.00 | 50 | 1005.4 |
| 20260507173506 | 80 | 332 | 2.6 | 12.2 | 0.00 | 0.00 | 0.00 | 50 | 1005.2 |
| 20260507173212 | 80 | 308 | 7.0 | 13.9 | 0.00 | 0.00 | 0.00 | 50 | 1005.3 |
| 20260507173006 | 79 | 298 | 5.2 | 13.9 | 0.00 | 0.00 | 0.00 | 50 | 1005.0 |
| 20260507172711 | 79 | 283 | 5.2 | 13.9 | 0.00 | 0.00 | 0.00 | 50 | 1005.2 |
| 20260507172505 | 79 | 285 | 4.3 | 13.9 | 0.00 | 0.00 | 0.00 | 50 | 1005.4 |
| 20260507172007 | 79 | 293 | 5.2 | 10.4 | 0.00 | 0.00 | 0.00 | 50 | 1005.5 |
| 20260507171713 | 79 | 307 | 2.6 | 10.4 | 0.00 | 0.00 | 0.00 | 50 | 1005.3 |
| 20260507171506 | 79 | 299 | 2.6 | 10.4 | 0.00 | 0.00 | 0.00 | 50 | 1005.5 |
| 20260507171211 | 80 | 296 | 7.8 | 10.4 | 0.00 | 0.00 | 0.00 | 49 | 1005.4 |
| 20260507171005 | 80 | 291 | 4.3 | 10.4 | 0.00 | 0.00 | 0.00 | 48 | 1005.4 |
| 20260507170711 | 80 | 293 | 6.1 | 10.4 | 0.00 | 0.00 | 0.00 | 47 | 1005.4 |
| 20260507170505 | 80 | 322 | 3.5 | 11.3 | 0.00 | 0.00 | 0.00 | 47 | 1005.4 |
| 20260507170212 | 80 | 350 | 3.5 | 11.3 | 0.00 | 0.00 | 0.00 | 47 | 1005.6 |
| 20260507170007 | 80 | 310 | 5.2 | 16.5 | 0.00 | 0.00 | 0.00 | 48 | 1005.6 |
| 20260507165506 | 80 | 288 | 7.8 | 16.5 | 0.00 | 0.00 | 0.00 | 47 | 1005.6 |
| 20260507165211 | 80 | 277 | 8.7 | 16.5 | 0.00 | 0.00 | 0.00 | 46 | 1005.6 |
| 20260507165006 | 80 | 308 | 4.3 | 20.9 | 0.00 | 0.00 | 0.00 | 48 | 1005.9 |
| 20260507164711 | 80 | 311 | 7.8 | 20.9 | 0.00 | 0.00 | 0.00 | 48 | 1005.8 |
| 20260507164507 | 80 | 312 | 5.2 | 20.9 | 0.00 | 0.00 | 0.00 | 47 | 1005.9 |
| 20260507164212 | 80 | 309 | 5.2 | 20.9 | 0.00 | 0.00 | 0.00 | 47 | 1005.7 |
| 20260507164007 | 80 | 294 | 7.8 | 13.9 | 0.00 | 0.00 | 0.00 | 48 | 1006.0 |
| 20260507163506 | 80 | 294 | 5.2 | 11.3 | 0.00 | 0.00 | 0.00 | 49 | 1006.1 |
| 20260507163212 | 80 | 281 | 5.2 | 13.0 | 0.00 | 0.00 | 0.00 | 50 | 1005.8 |
| 20260507163006 | 80 | 282 | 5.2 | 21.7 | 0.00 | 0.00 | 0.00 | 50 | 1006.1 |
| 20260507162711 | 80 | 273 | 5.2 | 21.7 | 0.00 | 0.00 | 0.00 | 49 | 1006.4 |
| 20260507162505 | 80 | 268 | 7.8 | 21.7 | 0.00 | 0.00 | 0.00 | 48 | 1006.1 |
| 20260507162212 | 80 | 276 | 5.2 | 21.7 | 0.00 | 0.00 | 0.00 | 49 | 1006.0 |
| 20260507162007 | 80 | 276 | 7.8 | 19.1 | 0.00 | 0.00 | 0.00 | 49 | 1006.2 |
| 20260507161714 | 80 | 263 | 7.8 | 21.7 | 0.00 | 0.00 | 0.00 | 48 | 1006.3 |
| 20260507161506 | 80 | 272 | 6.1 | 21.7 | 0.00 | 0.00 | 0.00 | 48 | 1006.4 |
| 20260507161211 | 80 | 277 | 7.0 | 21.7 | 0.00 | 0.00 | 0.00 | 46 | 1006.8 |
| 20260507161006 | 80 | 279 | 10.4 | 21.7 | 0.00 | 0.00 | 0.00 | 45 | 1006.7 |
| 20260507160507 | 82 | 296 | 7.8 | 15.6 | 0.00 | 0.00 | 0.00 | 43 | 1006.6 |
| 20260507160213 | 82 | 313 | 3.5 | 15.6 | 0.00 | 0.00 | 0.00 | 44 | 1006.5 |
| 20260507160006 | 82 | 307 | 2.6 | 15.6 | 0.00 | 0.00 | 0.00 | 44 | 1006.3 |
| 20260507155506 | 82 | 298 | 5.2 | 13.9 | 0.00 | 0.00 | 0.00 | 44 | 1006.7 |
| 20260507155212 | 81 | 282 | 7.8 | 14.8 | 0.00 | 0.00 | 0.00 | 50 | 1006.4 |
| 20260507155006 | 81 | 276 | 9.6 | 14.8 | 0.00 | 0.00 | 0.00 | 50 | 1006.5 |
| 20260507154507 | 81 | 281 | 7.8 | 16.5 | 0.00 | 0.00 | 0.00 | 51 | 1006.6 |
| 20260507154008 | 80 | 313 | 9.6 | 16.5 | 0.00 | 0.00 | 0.00 | 52 | 1006.5 |
| 20260507153506 | 80 | 317 | 5.2 | 14.8 | 0.00 | 0.00 | 0.00 | 54 | 1006.8 |
| 20260507153211 | 81 | 329 | 5.2 | 9.6 | 0.00 | 0.00 | 0.00 | 55 | 1006.9 |
| 20260507153005 | 81 | 331 | 5.2 | 10.4 | 0.00 | 0.00 | 0.00 | 55 | 1006.7 |
| 20260507152713 | 81 | 331 | 3.5 | 10.4 | 0.00 | 0.00 | 0.00 | 56 | 1006.9 |
| 20260507152507 | 81 | 328 | 4.3 | 10.4 | 0.00 | 0.00 | 0.00 | 56 | 1006.8 |
| 20260507152212 | 81 | 318 | 5.2 | 10.4 | 0.00 | 0.00 | 0.00 | 55 | 1007.0 |
| 20260507152006 | 81 | 292 | 2.6 | 11.3 | 0.00 | 0.00 | 0.00 | 55 | 1007.1 |
| 20260507151506 | 80 | 289 | 3.5 | 11.3 | 0.00 | 0.00 | 0.00 | 56 | 1007.3 |
| 20260507151212 | 80 | 285 | 6.1 | 14.8 | 0.00 | 0.00 | 0.00 | 55 | 1007.2 |
| 20260507151007 | 80 | 287 | 7.0 | 14.8 | 0.00 | 0.00 | 0.00 | 55 | 1007.6 |
| 20260507150507 | 80 | 289 | 5.2 | 15.6 | 0.00 | 0.00 | 0.00 | 56 | 1007.4 |
| 20260507150213 | 80 | 289 | 7.0 | 15.6 | 0.00 | 0.00 | 0.00 | 56 | 1007.4 |
| 20260507150006 | 80 | 311 | 5.2 | 15.6 | 0.00 | 0.00 | 0.00 | 57 | 1007.5 |
| 20260507145712 | 80 | 315 | 5.2 | 15.6 | 0.00 | 0.00 | 0.00 | 56 | 1007.6 |
| 20260507145506 | 80 | 321 | 10.4 | 15.6 | 0.00 | 0.00 | 0.00 | 56 | 1007.7 |
| 20260507145211 | 79 | 338 | 2.6 | 12.2 | 0.00 | 0.00 | 0.00 | 60 | 1007.9 |
| 20260507145005 | 79 | 308 | 2.6 | 12.2 | 0.00 | 0.00 | 0.00 | 60 | 1007.7 |
| 20260507144711 | 79 | 281 | 6.1 | 12.2 | 0.00 | 0.00 | 0.00 | 59 | 1007.7 |
| 20260507144507 | 79 | 270 | 5.2 | 10.4 | 0.00 | 0.00 | 0.00 | 60 | 1008.1 |
| 20260507144006 | 78 | 285 | 2.6 | 12.2 | 0.00 | 0.00 | 0.00 | 60 | 1008.2 |
| 20260507143712 | 78 | 314 | 5.2 | 12.2 | 0.00 | 0.00 | 0.00 | 61 | 1008.2 |
| 20260507143506 | 77 | 319 | 4.3 | 12.2 | 0.00 | 0.00 | 0.00 | 61 | 1008.6 |
| 20260507143212 | 77 | 331 | 10.4 | 12.2 | 0.00 | 0.00 | 0.00 | 61 | 1008.8 |
| 20260507143006 | 77 | 335 | 5.2 | 10.4 | 0.00 | 0.00 | 0.00 | 62 | 1008.6 |
| 20260507142711 | 76 | 309 | 5.2 | 10.4 | 0.00 | 0.00 | 0.00 | 63 | 1008.7 |
| 20260507142505 | 76 | 327 | 6.1 | 10.4 | 0.00 | 0.00 | 0.00 | 64 | 1008.7 |
| 20260507142212 | 75 | 339 | 5.2 | 13.0 | 0.00 | 0.00 | 0.00 | 64 | 1008.8 |
| 20260507142007 | 74 | 340 | 3.5 | 13.0 | 0.00 | 0.00 | 0.00 | 64 | 1009.0 |
| 20260507141713 | 74 | 358 | 5.2 | 13.0 | 0.00 | 0.00 | 0.00 | 64 | 1008.9 |
| 20260507141506 | 74 | 4 | 3.5 | 13.0 | 0.00 | 0.00 | 0.00 | 65 | 1009.2 |
| 20260507141211 | 74 | 338 | 2.6 | 8.7 | 0.00 | 0.00 | 0.00 | 66 | 1009.0 |
| 20260507141007 | 74 | 313 | 2.6 | 13.0 | 0.00 | 0.00 | 0.00 | 65 | 1008.9 |
| 20260507140711 | 74 | 281 | 3.5 | 13.0 | 0.00 | 0.00 | 0.00 | 66 | 1009.1 |
| 20260507140505 | 74 | 269 | 2.6 | 13.0 | 0.00 | 0.00 | 0.00 | 66 | 1009.0 |
| 20260507140213 | 74 | 236 | 4.3 | 13.0 | 0.00 | 0.00 | 0.00 | 65 | 1009.1 |
| 20260507140007 | 74 | 269 | 9.6 | 13.0 | 0.00 | 0.00 | 0.00 | 65 | 1009.4 |
| 20260507135712 | 74 | 243 | 2.6 | 10.4 | 0.00 | 0.00 | 0.00 | 65 | 1009.3 |
| 20260507135506 | 74 | 232 | 2.6 | 10.4 | 0.00 | 0.00 | 0.00 | 65 | 1009.5 |
| 20260507135211 | 74 | 251 | 6.1 | 9.6 | 0.00 | 0.00 | 0.00 | 65 | 1009.6 |
| 20260507135006 | 74 | 255 | 5.2 | 13.9 | 0.00 | 0.00 | 0.00 | 65 | 1009.8 |
| 20260507134507 | 74 | 281 | 4.3 | 13.9 | 0.00 | 0.00 | 0.00 | 66 | 1009.9 |
| 20260507134213 | 74 | 299 | 2.6 | 13.9 | 0.00 | 0.00 | 0.00 | 67 | 1009.8 |
| 20260507134007 | 73 | 318 | 6.1 | 10.4 | 0.00 | 0.00 | 0.00 | 67 | 1009.9 |
| 20260507133712 | 73 | 312 | 5.2 | 10.4 | 0.00 | 0.00 | 0.00 | 68 | 1010.0 |
| 20260507133506 | 73 | 338 | 3.5 | 8.7 | 0.00 | 0.00 | 0.00 | 69 | 1010.1 |
| 20260507133212 | 73 | 310 | 6.1 | 8.7 | 0.00 | 0.00 | 0.00 | 68 | 1010.2 |
| 20260507133005 | 73 | 292 | 4.3 | 8.7 | 0.00 | 0.00 | 0.00 | 69 | 1010.0 |
| 20260507132711 | 72 | 321 | 2.6 | 12.2 | 0.00 | 0.00 | 0.00 | 69 | 1010.1 |
| 20260507132507 | 72 | 312 | 1.7 | 12.2 | 0.00 | 0.00 | 0.00 | 69 | 1010.3 |
| 20260507132215 | 73 | 319 | 5.2 | 12.2 | 0.00 | 0.00 | 0.00 | 69 | 1010.1 |
| 20260507132007 | 73 | 321 | 2.6 | 12.2 | 0.00 | 0.00 | 0.00 | 70 | 1010.2 |
| 20260507131506 | 73 | 326 | 3.5 | 7.8 | 0.00 | 0.00 | 0.00 | 70 | 1010.3 |
| 20260507131005 | 72 | 298 | 4.3 | 9.6 | 0.00 | 0.00 | 0.00 | 70 | 1010.4 |
| 20260507130712 | 72 | 300 | 2.6 | 9.6 | 0.00 | 0.00 | 0.00 | 70 | 1010.3 |
| 20260507130507 | 72 | 299 | 3.5 | 11.3 | 0.00 | 0.00 | 0.00 | 70 | 1010.5 |
| 20260507130213 | 72 | 304 | 3.5 | 11.3 | 0.00 | 0.00 | 0.00 | 70 | 1010.3 |
| 20260507130006 | 72 | 319 | 5.2 | 11.3 | 0.00 | 0.00 | 0.00 | 70 | 1010.5 |
| 20260507125712 | 73 | 325 | 8.7 | 11.3 | 0.00 | 0.00 | 0.00 | 69 | 1010.3 |
| 20260507125506 | 73 | 322 | 2.6 | 7.0 | 0.00 | 0.00 | 0.00 | 70 | 1010.5 |
| 20260507125213 | 73 | 321 | 4.3 | 7.8 | 0.00 | 0.00 | 0.00 | 70 | 1010.5 |
| 20260507125006 | 73 | 309 | 3.5 | 7.8 | 0.00 | 0.00 | 0.00 | 70 | 1010.5 |
| 20260507124711 | 73 | 303 | 2.6 | 7.8 | 0.00 | 0.00 | 0.00 | 70 | 1010.7 |
| 20260507124507 | 73 | 308 | 5.2 | 7.8 | 0.00 | 0.00 | 0.00 | 70 | 1010.5 |
| 20260507124212 | 72 | 304 | 2.6 | 6.1 | 0.00 | 0.00 | 0.00 | 70 | 1010.6 |
| 20260507124006 | 72 | 302 | 3.5 | 6.1 | 0.00 | 0.00 | 0.00 | 73 | 1010.6 |
| 20260507123712 | 72 | 307 | 1.7 | 9.6 | 0.00 | 0.00 | 0.00 | 73 | 1010.6 |
| 20260507123506 | 72 | 303 | 3.5 | 9.6 | 0.00 | 0.00 | 0.00 | 73 | 1010.5 |
| 20260507123211 | 72 | 304 | 2.6 | 9.6 | 0.00 | 0.00 | 0.00 | 73 | 1010.7 |
| 20260507123007 | 71 | 301 | 4.3 | 9.6 | 0.00 | 0.00 | 0.00 | 73 | 1010.6 |
| 20260507122507 | 71 | 265 | 2.6 | 9.6 | 0.00 | 0.00 | 0.00 | 74 | 1010.8 |
| 20260507122212 | 71 | 272 | 2.6 | 9.6 | 0.00 | 0.00 | 0.00 | 74 | 1010.6 |
| 20260507122006 | 71 | 282 | 2.6 | 9.6 | 0.00 | 0.00 | 0.00 | 74 | 1010.8 |
| 20260507121506 | 71 | 297 | 2.6 | 7.8 | 0.00 | 0.00 | 0.00 | 74 | 1010.8 |
| 20260507121211 | 71 | 292 | 2.6 | 7.8 | 0.00 | 0.00 | 0.00 | 74 | 1011.0 |
| 20260507121005 | 71 | 295 | 2.6 | 6.1 | 0.00 | 0.00 | 0.00 | 74 | 1010.8 |
| 20260507120507 | 71 | 293 | 0.9 | 6.1 | 0.00 | 0.00 | 0.00 | 74 | 1010.9 |
| 20260507120212 | 71 | 301 | 3.5 | 6.1 | 0.00 | 0.00 | 0.00 | 74 | 1010.8 |
| 20260507120006 | 71 | 294 | 2.6 | 9.6 | 0.00 | 0.00 | 0.00 | 74 | 1010.8 |
| 20260507115712 | 71 | 309 | 2.6 | 9.6 | 0.00 | 0.00 | 0.00 | 74 | 1010.9 |
| 20260507115506 | 71 | 328 | 2.6 | 9.6 | 0.00 | 0.00 | 0.00 | 74 | 1010.9 |
| 20260507115211 | 71 | 272 | 3.5 | 9.6 | 0.00 | 0.00 | 0.00 | 74 | 1011.0 |
| 20260507115006 | 71 | 218 | 2.6 | 7.8 | 0.00 | 0.00 | 0.00 | 74 | 1010.9 |
| 20260507114714 | 71 | 247 | 3.5 | 7.8 | 0.00 | 0.00 | 0.00 | 74 | 1010.7 |
| 20260507114506 | 70 | 251 | 4.3 | 8.7 | 0.00 | 0.00 | 0.00 | 75 | 1010.6 |
| 20260507114212 | 70 | 274 | 2.6 | 8.7 | 0.00 | 0.00 | 0.00 | 75 | 1010.7 |
| 20260507114006 | 71 | 273 | 5.2 | 8.7 | 0.00 | 0.00 | 0.00 | 75 | 1010.7 |
| 20260507113712 | 71 | 277 | 4.3 | 8.7 | 0.00 | 0.00 | 0.00 | 75 | 1010.7 |
| 20260507113506 | 71 | 288 | 2.6 | 7.0 | 0.00 | 0.00 | 0.00 | 75 | 1010.8 |
| 20260507113211 | 71 | 306 | 3.5 | 7.8 | 0.00 | 0.00 | 0.00 | 75 | 1010.7 |
| 20260507113007 | 71 | 336 | 3.5 | 8.7 | 0.00 | 0.00 | 0.00 | 75 | 1010.7 |
| 20260507112712 | 71 | 315 | 2.6 | 8.7 | 0.00 | 0.00 | 0.00 | 75 | 1010.8 |
| 20260507112507 | 71 | 308 | 2.6 | 8.7 | 0.00 | 0.00 | 0.00 | 75 | 1010.6 |
| 20260507112212 | 71 | 291 | 5.2 | 8.7 | 0.00 | 0.00 | 0.00 | 75 | 1010.6 |
| 20260507112006 | 70 | 272 | 5.2 | 7.8 | 0.00 | 0.00 | 0.00 | 76 | 1010.6 |
| 20260507111714 | 70 | 268 | 1.7 | 7.0 | 0.00 | 0.00 | 0.00 | 76 | 1010.6 |
| 20260507111506 | 70 | 268 | 4.3 | 7.0 | 0.00 | 0.00 | 0.00 | 77 | 1010.6 |
| 20260507111213 | 70 | 282 | 5.2 | 7.0 | 0.00 | 0.00 | 0.00 | 77 | 1010.8 |
| 20260507111007 | 70 | 295 | 3.5 | 5.2 | 0.00 | 0.00 | 0.00 | 77 | 1010.8 |
| 20260507110712 | 69 | 295 | 0.9 | 5.2 | 0.00 | 0.00 | 0.00 | 78 | 1010.8 |
| 20260507110506 | 69 | 284 | 1.7 | 8.7 | 0.00 | 0.00 | 0.00 | 78 | 1010.9 |
| 20260507110212 | 69 | 278 | 2.6 | 8.7 | 0.00 | 0.00 | 0.00 | 78 | 1011.1 |
| 20260507110006 | 69 | 272 | 2.6 | 8.7 | 0.00 | 0.00 | 0.00 | 78 | 1011.0 |
| 20260507105711 | 69 | 264 | 2.6 | 8.7 | 0.00 | 0.00 | 0.00 | 78 | 1011.0 |
| 20260507105505 | 69 | 262 | 5.2 | 8.7 | 0.00 | 0.00 | 0.00 | 78 | 1011.1 |
| 20260507105213 | 69 | 257 | 2.6 | 6.1 | 0.00 | 0.00 | 0.00 | 78 | 1011.1 |
| 20260507105007 | 69 | 265 | 2.6 | 8.7 | 0.00 | 0.00 | 0.00 | 78 | 1010.9 |
| 20260507104506 | 69 | 287 | 2.6 | 8.7 | 0.00 | 0.00 | 0.00 | 78 | 1011.2 |
| 20260507104005 | 69 | 305 | 3.5 | 7.0 | 0.00 | 0.00 | 0.00 | 78 | 1011.0 |
| 20260507103507 | 69 | 276 | 1.7 | 8.7 | 0.00 | 0.00 | 0.00 | 77 | 1010.9 |
| 20260507103007 | 69 | 276 | 2.6 | 8.7 | 0.00 | 0.00 | 0.00 | 78 | 1010.9 |
| 20260507102506 | 69 | 283 | 1.7 | 8.7 | 0.00 | 0.00 | 0.00 | 78 | 1011.1 |
| 20260507102007 | 69 | 271 | 5.2 | 10.4 | 0.00 | 0.00 | 0.00 | 78 | 1010.9 |
| 20260507101507 | 69 | 282 | 5.2 | 10.4 | 0.00 | 0.00 | 0.00 | 78 | 1011.1 |
| 20260507101006 | 69 | 300 | 3.5 | 8.7 | 0.00 | 0.00 | 0.00 | 79 | 1011.1 |
| 20260507100506 | 69 | 299 | 5.2 | 7.8 | 0.00 | 0.00 | 0.00 | 80 | 1011.0 |
| 20260507100005 | 69 | 271 | 6.1 | 7.8 | 0.00 | 0.00 | 0.00 | 80 | 1011.0 |
| 20260507095507 | 69 | 275 | 5.2 | 7.8 | 0.00 | 0.00 | 0.00 | 80 | 1010.7 |
| 20260507095006 | 69 | 285 | 2.6 | 10.4 | 0.00 | 0.00 | 0.00 | 80 | 1010.8 |
| 20260507094506 | 69 | 281 | 3.5 | 10.4 | 0.00 | 0.00 | 0.00 | 80 | 1011.0 |
| 20260507094005 | 69 | 285 | 7.8 | 10.4 | 0.00 | 0.00 | 0.00 | 80 | 1011.0 |
| 20260507093507 | 69 | 288 | 2.6 | 6.1 | 0.00 | 0.00 | 0.00 | 80 | 1011.0 |
| 20260507093006 | 69 | 273 | 4.3 | 7.8 | 0.00 | 0.00 | 0.00 | 80 | 1010.8 |
| 20260507092506 | 69 | 265 | 2.6 | 9.6 | 0.00 | 0.00 | 0.00 | 79 | 1011.0 |
| 20260507092006 | 69 | 276 | 3.5 | 9.6 | 0.00 | 0.00 | 0.00 | 79 | 1011.0 |
| 20260507091507 | 69 | 270 | 6.1 | 9.6 | 0.00 | 0.00 | 0.00 | 79 | 1011.0 |
| 20260507091006 | 69 | 290 | 3.5 | 7.8 | 0.00 | 0.00 | 0.00 | 79 | 1011.3 |
| 20260507090507 | 69 | 323 | 2.6 | 10.4 | 0.00 | 0.00 | 0.00 | 78 | 1011.2 |
| 20260507090006 | 69 | 274 | 2.6 | 10.4 | 0.00 | 0.00 | 0.00 | 78 | 1011.0 |
| 20260507085508 | 69 | 295 | 5.2 | 9.6 | 0.00 | 0.00 | 0.00 | 78 | 1010.9 |
| 20260507085007 | 70 | 308 | 2.6 | 8.7 | 0.00 | 0.00 | 0.00 | 78 | 1011.1 |
| 20260507084506 | 70 | 290 | 4.3 | 8.7 | 0.00 | 0.00 | 0.00 | 78 | 1011.0 |
| 20260507084006 | 70 | 230 | 0.9 | 7.8 | 0.00 | 0.00 | 0.00 | 77 | 1011.0 |
| 20260507083507 | 70 | 246 | 3.5 | 7.8 | 0.00 | 0.00 | 0.00 | 77 | 1010.9 |
| 20260507083006 | 70 | 270 | 5.2 | 7.0 | 0.00 | 0.00 | 0.00 | 77 | 1011.0 |
| 20260507082506 | 70 | 270 | 2.6 | 7.8 | 0.00 | 0.00 | 0.00 | 77 | 1011.0 |
| 20260507082006 | 70 | 197 | 2.6 | 7.8 | 0.00 | 0.00 | 0.00 | 77 | 1011.1 |
| 20260507081507 | 70 | 196 | 2.6 | 5.2 | 0.00 | 0.00 | 0.00 | 76 | 1010.9 |
| 20260507081007 | 70 | 285 | 2.6 | 5.2 | 0.00 | 0.00 | 0.00 | 76 | 1010.8 |
| 20260507080506 | 70 | 295 | 1.7 | 5.2 | 0.00 | 0.00 | 0.00 | 76 | 1011.0 |
| 20260507080007 | 70 | 272 | 4.3 | 7.0 | 0.00 | 0.00 | 0.00 | 76 | 1010.8 |
| 20260507075506 | 70 | 272 | 2.6 | 11.3 | 0.00 | 0.00 | 0.00 | 76 | 1010.9 |
| 20260507075006 | 70 | 264 | 5.2 | 11.3 | 0.00 | 0.00 | 0.00 | 77 | 1010.9 |
| 20260507074505 | 70 | 274 | 5.2 | 7.8 | 0.00 | 0.00 | 0.00 | 77 | 1011.0 |
| 20260507074007 | 70 | 295 | 2.6 | 9.6 | 0.00 | 0.00 | 0.00 | 77 | 1011.0 |
| 20260507073507 | 70 | 280 | 2.6 | 9.6 | 0.00 | 0.00 | 0.00 | 77 | 1011.2 |
| 20260507073006 | 70 | 272 | 4.3 | 7.0 | 0.00 | 0.00 | 0.00 | 77 | 1011.3 |
| 20260507072506 | 70 | 295 | 3.5 | 7.0 | 0.00 | 0.00 | 0.00 | 78 | 1011.4 |
| 20260507072006 | 70 | 274 | 4.3 | 7.8 | 0.00 | 0.00 | 0.00 | 78 | 1011.5 |
| 20260507071507 | 70 | 258 | 1.7 | 9.6 | 0.00 | 0.00 | 0.00 | 78 | 1011.4 |
| 20260507071006 | 70 | 274 | 2.6 | 9.6 | 0.00 | 0.00 | 0.00 | 78 | 1011.4 |
| 20260507070506 | 69 | 306 | 2.6 | 7.8 | 0.00 | 0.00 | 0.00 | 78 | 1011.6 |
| 20260507070010 | 69 | 302 | 0.9 | 7.8 | 0.00 | 0.00 | 0.00 | 78 | 1011.6 |
| 20260507065507 | 69 | 284 | 2.6 | 10.4 | 0.00 | 0.00 | 0.00 | 77 | 1011.6 |
| 20260507065007 | 69 | 296 | 2.6 | 10.4 | 0.00 | 0.00 | 0.00 | 77 | 1011.7 |
| 20260507064506 | 69 | 338 | 2.6 | 7.8 | 0.00 | 0.00 | 0.00 | 77 | 1011.7 |
| 20260507064006 | 69 | 283 | 0.0 | 7.8 | 0.00 | 0.00 | 0.00 | 77 | 1011.9 |
| 20260507063507 | 69 | 283 | 4.3 | 7.0 | 0.00 | 0.00 | 0.00 | 77 | 1011.9 |
| 20260507063007 | 69 | 243 | 3.5 | 8.7 | 0.00 | 0.00 | 0.00 | 77 | 1012.0 |
| 20260507062506 | 69 | 250 | 1.7 | 8.7 | 0.00 | 0.00 | 0.00 | 77 | 1012.1 |
| 20260507062006 | 69 | 272 | 2.6 | 7.0 | 0.00 | 0.00 | 0.00 | 78 | 1012.1 |
| 20260507061507 | 69 | 268 | 1.7 | 7.0 | 0.00 | 0.00 | 0.00 | 78 | 1012.2 |
| 20260507061007 | 69 | 296 | 5.2 | 7.0 | 0.00 | 0.00 | 0.00 | 78 | 1012.3 |
| 20260507060507 | 69 | 292 | 1.7 | 4.3 | 0.00 | 0.00 | 0.00 | 78 | 1012.4 |
| 20260507060006 | 69 | 262 | 2.6 | 4.3 | 0.00 | 0.00 | 0.00 | 78 | 1012.6 |
| 20260507055506 | 69 | 268 | 1.7 | 5.2 | 0.00 | 0.00 | 0.00 | 78 | 1012.6 |
| 20260507055005 | 69 | 264 | 0.9 | 5.2 | 0.00 | 0.00 | 0.00 | 78 | 1012.8 |
| 20260507054507 | 69 | 283 | 1.7 | 3.5 | 0.00 | 0.00 | 0.00 | 78 | 1012.7 |
| 20260507054006 | 69 | 314 | 1.7 | 5.2 | 0.00 | 0.00 | 0.00 | 78 | 1012.8 |
| 20260507053506 | 69 | 285 | 1.7 | 5.2 | 0.00 | 0.00 | 0.00 | 78 | 1012.8 |
| 20260507053005 | 69 | 256 | 1.7 | 5.2 | 0.00 | 0.00 | 0.00 | 78 | 1012.9 |
| 20260507052507 | 69 | 252 | 1.7 | 5.2 | 0.00 | 0.00 | 0.00 | 78 | 1013.4 |
| 20260507052007 | 69 | 264 | 3.5 | 5.2 | 0.00 | 0.00 | 0.00 | 79 | 1013.2 |
| 20260507051506 | 69 | 282 | 1.7 | 5.2 | 0.00 | 0.00 | 0.00 | 78 | 1013.1 |
| 20260507051006 | 69 | 271 | 0.9 | 6.1 | 0.00 | 0.00 | 0.00 | 78 | 1013.4 |
| 20260507050505 | 69 | 249 | 1.7 | 6.1 | 0.00 | 0.00 | 0.00 | 78 | 1013.3 |
| 20260507050007 | 69 | 266 | 0.9 | 5.2 | 0.00 | 0.00 | 0.00 | 78 | 1013.5 |
| 20260507045507 | 69 | 151 | 3.5 | 5.2 | 0.00 | 0.00 | 0.00 | 79 | 1013.5 |
| 20260507045006 | 69 | 168 | 1.7 | 5.2 | 0.00 | 0.00 | 0.00 | 78 | 1013.7 |
| 20260507044505 | 69 | 233 | 2.6 | 4.3 | 0.00 | 0.00 | 0.00 | 78 | 1013.7 |
| 20260507044007 | 69 | 127 | 0.9 | 2.6 | 0.00 | 0.00 | 0.00 | 78 | 1013.9 |
| 20260507043507 | 69 | 338 | 0.0 | 5.2 | 0.00 | 0.00 | 0.00 | 77 | 1014.0 |
| 20260507043006 | 69 | 340 | 1.7 | 7.0 | 0.00 | 0.00 | 0.00 | 77 | 1014.1 |
| 20260507042506 | 70 | 324 | 4.3 | 7.0 | 0.00 | 0.00 | 0.00 | 77 | 1014.1 |
| 20260507042006 | 70 | 174 | 0.9 | 5.2 | 0.00 | 0.00 | 0.00 | 77 | 1014.2 |
| 20260507041507 | 70 | 141 | 0.9 | 5.2 | 0.00 | 0.00 | 0.00 | 77 | 1014.0 |
| 20260507041006 | 69 | 115 | 0.9 | 7.0 | 0.00 | 0.00 | 0.00 | 77 | 1014.5 |
| 20260507040506 | 70 | 193 | 2.6 | 7.0 | 0.00 | 0.00 | 0.00 | 78 | 1014.3 |
| 20260507040006 | 69 | 191 | 0.9 | 4.3 | 0.00 | 0.00 | 0.00 | 78 | 1014.3 |
| 20260507035507 | 69 | 174 | 2.6 | 3.5 | 0.00 | 0.00 | 0.00 | 78 | 1014.6 |
| 20260507035007 | 69 | 215 | 0.9 | 3.5 | 0.00 | 0.00 | 0.00 | 78 | 1014.4 |
| 20260507034506 | 69 | 211 | 0.9 | 3.5 | 0.00 | 0.00 | 0.00 | 79 | 1014.3 |
| 20260507034006 | 69 | 170 | 0.9 | 3.5 | 0.00 | 0.00 | 0.00 | 79 | 1014.6 |
| 20260507033506 | 69 | 151 | 0.9 | 3.5 | 0.00 | 0.00 | 0.00 | 79 | 1014.4 |
| 20260507033007 | 69 | 173 | 1.7 | 4.3 | 0.00 | 0.00 | 0.00 | 79 | 1014.7 |
| 20260507032507 | 69 | 193 | 2.6 | 4.3 | 0.00 | 0.00 | 0.00 | 78 | 1014.6 |
| 20260507032007 | 69 | 137 | 0.9 | 3.5 | 0.00 | 0.00 | 0.00 | 77 | 1014.7 |
| 20260507031506 | 69 | 126 | 0.0 | 5.2 | 0.00 | 0.00 | 0.00 | 77 | 1015.0 |
| 20260507031007 | 69 | 126 | 1.7 | 5.2 | 0.00 | 0.00 | 0.00 | 77 | 1014.9 |
| 20260507030507 | 69 | 136 | 1.7 | 7.0 | 0.00 | 0.00 | 0.00 | 76 | 1015.0 |
| 20260507030006 | 69 | 137 | 1.7 | 7.0 | 0.00 | 0.00 | 0.00 | 76 | 1014.9 |
| 20260507025506 | 69 | 119 | 2.6 | 6.1 | 0.00 | 0.00 | 0.00 | 76 | 1014.9 |
| 20260507025006 | 69 | 128 | 2.6 | 8.7 | 0.00 | 0.00 | 0.00 | 76 | 1015.0 |
| 20260507024507 | 70 | 129 | 3.5 | 8.7 | 0.00 | 0.00 | 0.00 | 75 | 1015.2 |
| 20260507024007 | 70 | 126 | 3.5 | 7.0 | 0.00 | 0.00 | 0.00 | 75 | 1015.4 |
| 20260507023506 | 70 | 138 | 2.6 | 7.0 | 0.00 | 0.00 | 0.00 | 75 | 1015.2 |
| 20260507023006 | 70 | 142 | 2.6 | 7.0 | 0.00 | 0.00 | 0.00 | 74 | 1015.3 |
| 20260507022505 | 70 | 145 | 3.5 | 7.0 | 0.00 | 0.00 | 0.00 | 74 | 1015.5 |
| 20260507022007 | 70 | 146 | 2.6 | 7.0 | 0.00 | 0.00 | 0.00 | 74 | 1015.5 |
| 20260507021506 | 71 | 154 | 2.6 | 7.0 | 0.00 | 0.00 | 0.00 | 73 | 1015.4 |
| 20260507021006 | 71 | 149 | 5.2 | 7.0 | 0.00 | 0.00 | 0.00 | 74 | 1015.6 |
| 20260507020506 | 71 | 139 | 4.3 | 5.2 | 0.00 | 0.00 | 0.00 | 74 | 1015.4 |
| 20260507020007 | 70 | 130 | 2.6 | 5.2 | 0.00 | 0.00 | 0.00 | 74 | 1015.7 |
| 20260507015507 | 70 | 111 | 2.6 | 5.2 | 0.00 | 0.00 | 0.00 | 74 | 1015.7 |
| 20260507015006 | 70 | 105 | 1.7 | 3.5 | 0.00 | 0.00 | 0.00 | 74 | 1015.7 |
| 20260507014506 | 70 | 142 | 2.6 | 3.5 | 0.00 | 0.00 | 0.00 | 75 | 1015.7 |
| 20260507014007 | 70 | 170 | 0.0 | 3.5 | 0.00 | 0.00 | 0.00 | 74 | 1015.7 |
| 20260507013507 | 70 | 161 | 2.6 | 3.5 | 0.00 | 0.00 | 0.00 | 74 | 1015.7 |
| 20260507013006 | 71 | 145 | 0.0 | 2.6 | 0.00 | 0.00 | 0.00 | 73 | 1015.6 |
| 20260507012506 | 71 | 142 | 0.0 | 2.6 | 0.00 | 0.00 | 0.00 | 73 | 1015.7 |
| 20260507012007 | 71 | 139 | 0.9 | 3.5 | 0.00 | 0.00 | 0.00 | 73 | 1015.8 |
| 20260507011507 | 71 | 139 | 1.7 | 3.5 | 0.00 | 0.00 | 0.00 | 74 | 1015.8 |
| 20260507011006 | 71 | 142 | 2.6 | 3.5 | 0.00 | 0.00 | 0.00 | 74 | 1015.8 |
| 20260507010506 | 70 | 128 | 2.6 | 3.5 | 0.00 | 0.00 | 0.00 | 76 | 1015.7 |
| 20260507010006 | 70 | 111 | 0.9 | 2.6 | 0.00 | 0.00 | 0.00 | 76 | 1015.7 |
| 20260507005507 | 69 | 123 | 1.7 | 2.6 | 0.00 | 0.00 | 0.00 | 76 | 1015.8 |
| 20260507005213 | 70 | 136 | 0.0 | 1.7 | 0.00 | 0.00 | 0.00 | 76 | 1015.8 |
| 20260507005007 | 70 | 189 | 0.9 | 2.6 | 0.00 | 0.00 | 0.00 | 76 | 1015.7 |
| 20260507004713 | 70 | 248 | 0.0 | 3.5 | 0.00 | 0.00 | 0.00 | 76 | 1015.8 |
| 20260507004506 | 70 | 223 | 0.9 | 3.5 | 0.00 | 0.00 | 0.00 | 76 | 1015.9 |
| 20260507004006 | 69 | 239 | 0.0 | 3.5 | 0.00 | 0.00 | 0.00 | 78 | 1016.0 |
| 20260507003713 | 69 | 206 | 0.9 | 2.6 | 0.00 | 0.00 | 0.00 | 79 | 1016.0 |
| 20260507003507 | 69 | 193 | 0.0 | 2.6 | 0.00 | 0.00 | 0.00 | 79 | 1016.1 |
| 20260507003212 | 69 | 162 | 0.0 | 1.7 | 0.00 | 0.00 | 0.00 | 80 | 1015.9 |
| 20260507003007 | 69 | 147 | 0.9 | 2.6 | 0.00 | 0.00 | 0.00 | 80 | 1016.0 |
| 20260507002712 | 68 | 133 | 1.7 | 2.6 | 0.00 | 0.00 | 0.00 | 80 | 1016.0 |
| 20260507002506 | 69 | 99 | 0.0 | 2.6 | 0.00 | 0.00 | 0.00 | 80 | 1016.2 |
| 20260507002212 | 68 | 124 | 0.0 | 2.6 | 0.00 | 0.00 | 0.00 | 80 | 1016.2 |
| 20260507002006 | 68 | 92 | 0.9 | 1.7 | 0.00 | 0.00 | 0.00 | 79 | 1016.1 |
| 20260507001507 | 69 | 88 | 0.9 | 1.7 | 0.00 | 0.00 | 0.00 | 78 | 1016.1 |
| 20260507001212 | 69 | 97 | 0.0 | 2.6 | 0.00 | 0.00 | 0.00 | 78 | 1016.1 |
| 20260507001007 | 69 | 126 | 0.0 | 2.6 | 0.00 | 0.00 | 0.00 | 78 | 1015.9 |
| 20260507000712 | 69 | 141 | 0.9 | 2.6 | 0.00 | 0.00 | 0.00 | 79 | 1016.1 |
| 20260507000506 | 69 | 139 | 0.9 | 2.6 | 0.00 | 0.00 | 0.00 | 79 | 1016.1 |
| 20260507000212 | 69 | 129 | 2.6 | 2.6 | 0.00 | 0.00 | 0.00 | 79 | 1016.1 |
| 20260507000006 | 68 | 83 | 0.9 | 1.7 | 0.00 | 0.00 | 0.00 | 79 | 1016.1 |
| 20260506235506 | 69 | 74 | 0.0 | 1.7 | 0.00 | 0.00 | 0.00 | 77 | 1016.0 |
| 20260506235213 | 69 | 74 | 0.0 | 1.7 | 0.00 | 0.00 | 0.00 | 76 | 1016.1 |
| 20260506235007 | 69 | 78 | 0.0 | 1.7 | 0.00 | 0.00 | 0.00 | 76 | 1015.9 |
| 20260506234714 | 70 | 129 | 0.0 | 1.7 | 0.00 | 0.00 | 0.00 | 74 | 1016.1 |
| 20260506234507 | 70 | 157 | 0.0 | 2.6 | 0.00 | 0.00 | 0.00 | 74 | 1016.0 |
| 20260506234006 | 71 | 150 | 0.0 | 2.6 | 0.00 | 0.00 | 0.00 | 73 | 1016.1 |
| 20260506233711 | 71 | 156 | 0.9 | 3.5 | 0.00 | 0.00 | 0.00 | 73 | 1016.1 |
| 20260506233506 | 71 | 153 | 1.7 | 3.5 | 0.00 | 0.00 | 0.00 | 73 | 1016.3 |
| 20260506233211 | 71 | 157 | 0.9 | 4.3 | 0.00 | 0.00 | 0.00 | 73 | 1016.0 |
| 20260506233007 | 71 | 155 | 1.7 | 4.3 | 0.00 | 0.00 | 0.00 | 73 | 1016.1 |
| 20260506232714 | 71 | 153 | 2.6 | 4.3 | 0.00 | 0.00 | 0.00 | 74 | 1016.0 |
| 20260506232507 | 71 | 141 | 2.6 | 4.3 | 0.00 | 0.00 | 0.00 | 74 | 1016.0 |
| 20260506232212 | 71 | 140 | 0.0 | 2.6 | 0.00 | 0.00 | 0.00 | 75 | 1016.0 |
| 20260506232007 | 71 | 135 | 2.6 | 2.6 | 0.00 | 0.00 | 0.00 | 75 | 1016.1 |
| 20260506231712 | 70 | 112 | 0.0 | 1.7 | 0.00 | 0.00 | 0.00 | 76 | 1016.1 |
| 20260506231506 | 70 | 137 | 0.0 | 1.7 | 0.00 | 0.00 | 0.00 | 76 | 1015.9 |
| 20260506231212 | 70 | 134 | 0.0 | 1.7 | 0.00 | 0.00 | 0.00 | 76 | 1016.0 |
| 20260506231006 | 70 | 142 | 0.0 | 1.7 | 0.00 | 0.00 | 0.00 | 76 | 1016.1 |
| 20260506230712 | 70 | 145 | 0.0 | 1.7 | 0.00 | 0.00 | 0.00 | 75 | 1016.1 |
| 20260506230506 | 70 | 138 | 0.0 | 1.7 | 0.00 | 0.00 | 0.00 | 75 | 1016.0 |
| 20260506230211 | 71 | 114 | 0.0 | 1.7 | 0.00 | 0.00 | 0.00 | 74 | 1016.0 |
| 20260506230006 | 71 | 107 | 0.0 | 1.7 | 0.00 | 0.00 | 0.00 | 74 | 1016.0 |
| 20260506225713 | 71 | 111 | 0.0 | 1.7 | 0.00 | 0.00 | 0.00 | 74 | 1016.0 |
| 20260506225507 | 71 | 121 | 0.0 | 1.7 | 0.00 | 0.00 | 0.00 | 73 | 1015.8 |
| 20260506225212 | 71 | 161 | 0.0 | 1.7 | 0.00 | 0.00 | 0.00 | 73 | 1016.0 |
| 20260506225007 | 71 | 176 | 0.0 | 1.7 | 0.00 | 0.00 | 0.00 | 73 | 1016.0 |
| 20260506224506 | 71 | 155 | 0.9 | 1.7 | 0.00 | 0.00 | 0.00 | 73 | 1016.0 |
| 20260506224211 | 72 | 104 | 0.0 | 2.6 | 0.00 | 0.00 | 0.00 | 73 | 1016.1 |
| 20260506224006 | 72 | 145 | 0.0 | 2.6 | 0.00 | 0.00 | 0.00 | 73 | 1016.1 |
| 20260506223507 | 72 | 194 | 0.0 | 2.6 | 0.00 | 0.00 | 0.00 | 72 | 1016.0 |
| 20260506223213 | 72 | 222 | 1.7 | 2.6 | 0.00 | 0.00 | 0.00 | 72 | 1016.0 |
| 20260506223007 | 72 | 272 | 0.9 | 1.7 | 0.00 | 0.00 | 0.00 | 72 | 1016.2 |
| 20260506222714 | 72 | 227 | 0.0 | 0.9 | 0.00 | 0.00 | 0.00 | 72 | 1016.1 |
| 20260506222506 | 72 | 184 | 0.0 | 0.9 | 0.00 | 0.00 | 0.00 | 71 | 1016.3 |
| 20260506222212 | 72 | 157 | 0.0 | 1.7 | 0.00 | 0.00 | 0.00 | 71 | 1016.2 |
| 20260506222006 | 72 | 159 | 0.0 | 1.7 | 0.00 | 0.00 | 0.00 | 72 | 1016.3 |
| 20260506221711 | 72 | 165 | 0.0 | 2.6 | 0.00 | 0.00 | 0.00 | 71 | 1016.0 |
| 20260506221507 | 72 | 169 | 0.0 | 2.6 | 0.00 | 0.00 | 0.00 | 71 | 1016.3 |
| 20260506221213 | 72 | 173 | 0.0 | 2.6 | 0.00 | 0.00 | 0.00 | 71 | 1016.0 |
| 20260506221007 | 72 | 175 | 0.9 | 2.6 | 0.00 | 0.00 | 0.00 | 71 | 1016.0 |
| 20260506220712 | 72 | 202 | 0.0 | 1.7 | 0.00 | 0.00 | 0.00 | 71 | 1016.0 |
| 20260506220506 | 72 | 241 | 0.0 | 1.7 | 0.00 | 0.00 | 0.00 | 68 | 1016.1 |
| 20260506220213 | 73 | 270 | 0.0 | 1.7 | 0.00 | 0.00 | 0.00 | 68 | 1016.2 |
| 20260506220006 | 73 | 239 | 0.0 | 1.7 | 0.00 | 0.00 | 0.00 | 67 | 1016.1 |
| 20260506215711 | 73 | 227 | 0.0 | 1.7 | 0.00 | 0.00 | 0.00 | 67 | 1016.1 |
| 20260506215507 | 73 | 222 | 1.7 | 1.7 | 0.00 | 0.00 | 0.00 | 66 | 1016.2 |
| 20260506215213 | 73 | 218 | 0.9 | 1.7 | 0.00 | 0.00 | 0.00 | 66 | 1016.1 |
| 20260506215007 | 73 | 228 | 0.0 | 0.9 | 0.00 | 0.00 | 0.00 | 66 | 1016.1 |
| 20260506214506 | 74 | 204 | 0.0 | 1.7 | 0.00 | 0.00 | 0.00 | 65 | 1016.1 |
| 20260506214212 | 74 | 212 | 0.0 | 1.7 | 0.00 | 0.00 | 0.00 | 65 | 1016.0 |
| 20260506214006 | 74 | 213 | 0.0 | 1.7 | 0.00 | 0.00 | 0.00 | 64 | 1016.1 |
| 20260506213507 | 74 | 197 | 0.9 | 1.7 | 0.00 | 0.00 | 0.00 | 64 | 1015.9 |
| 20260506213007 | 74 | 188 | 0.0 | 1.7 | 0.00 | 0.00 | 0.00 | 64 | 1016.1 |
| 20260506212506 | 74 | 204 | 0.9 | 1.7 | 0.00 | 0.00 | 0.00 | 64 | 1016.2 |
| 20260506212006 | 74 | 220 | 0.0 | 1.7 | 0.00 | 0.00 | 0.00 | 64 | 1016.0 |
| 20260506211711 | 74 | 222 | 0.0 | 1.7 | 0.00 | 0.00 | 0.00 | 64 | 1016.1 |
| 20260506211507 | 74 | 230 | 0.0 | 1.7 | 0.00 | 0.00 | 0.00 | 64 | 1016.0 |
| 20260506211213 | 74 | 233 | 0.0 | 1.7 | 0.00 | 0.00 | 0.00 | 64 | 1016.0 |
| 20260506211007 | 75 | 223 | 0.0 | 0.9 | 0.00 | 0.00 | 0.00 | 63 | 1016.1 |
| 20260506210712 | 75 | 226 | 0.0 | 1.7 | 0.00 | 0.00 | 0.00 | 63 | 1016.0 |
| 20260506210507 | 75 | 236 | 0.0 | 1.7 | 0.00 | 0.00 | 0.00 | 63 | 1016.1 |
| 20260506210212 | 75 | 247 | 0.0 | 1.7 | 0.00 | 0.00 | 0.00 | 63 | 1015.9 |
| 20260506210006 | 75 | 238 | 0.9 | 1.7 | 0.00 | 0.00 | 0.00 | 63 | 1016.0 |
| 20260506205711 | 75 | 244 | 0.9 | 1.7 | 0.00 | 0.00 | 0.00 | 63 | 1015.9 |
| 20260506205506 | 75 | 219 | 0.0 | 1.7 | 0.00 | 0.00 | 0.00 | 63 | 1015.9 |
| 20260506205213 | 75 | 213 | 0.0 | 1.7 | 0.00 | 0.00 | 0.00 | 63 | 1015.8 |
| 20260506205007 | 76 | 224 | 0.0 | 0.9 | 0.00 | 0.00 | 0.00 | 62 | 1016.1 |
| 20260506204716 | 76 | 229 | 0.0 | 0.9 | 0.00 | 0.00 | 0.00 | 62 | 1015.9 |
| 20260506204507 | 76 | 234 | 0.0 | 0.9 | 0.00 | 0.00 | 0.00 | 62 | 1016.0 |
| 20260506204212 | 76 | 231 | 0.0 | 0.9 | 0.00 | 0.00 | 0.00 | 62 | 1016.0 |
| 20260506204006 | 76 | 227 | 0.0 | 0.9 | 0.00 | 0.00 | 0.00 | 61 | 1015.9 |
| 20260506203712 | 77 | 224 | 0.0 | 0.9 | 0.00 | 0.00 | 0.00 | 61 | 1016.0 |
| 20260506203506 | 77 | 229 | 0.0 | 0.9 | 0.00 | 0.00 | 0.00 | 61 | 1015.9 |
| 20260506203213 | 77 | 234 | 0.0 | 0.9 | 0.00 | 0.00 | 0.00 | 61 | 1016.2 |
| 20260506203007 | 77 | 239 | 0.0 | 0.9 | 0.00 | 0.00 | 0.00 | 60 | 1016.1 |
| 20260506202507 | 78 | 258 | 0.0 | 2.6 | 0.00 | 0.00 | 0.00 | 60 | 1016.2 |
| 20260506202212 | 78 | 257 | 0.0 | 2.6 | 0.00 | 0.00 | 0.00 | 59 | 1016.0 |
| 20260506202006 | 79 | 273 | 0.0 | 2.6 | 0.00 | 0.00 | 0.00 | 58 | 1016.1 |
| 20260506201713 | 80 | 266 | 2.6 | 2.6 | 0.00 | 0.00 | 0.00 | 56 | 1016.3 |
| 20260506201506 | 80 | 266 | 0.0 | 2.6 | 0.00 | 0.00 | 0.00 | 56 | 1016.1 |
| 20260506201213 | 81 | 280 | 0.9 | 2.6 | 0.00 | 0.00 | 0.00 | 54 | 1016.1 |
| 20260506201007 | 82 | 273 | 0.9 | 2.6 | 0.00 | 0.00 | 0.00 | 50 | 1016.3 |
| 20260506200713 | 82 | 301 | 0.0 | 1.7 | 0.00 | 0.00 | 0.00 | 51 | 1016.2 |
| 20260506200507 | 82 | 302 | 0.9 | 2.6 | 0.00 | 0.00 | 0.00 | 51 | 1016.3 |
| 20260506200212 | 82 | 313 | 0.0 | 2.6 | 0.00 | 0.00 | 0.00 | 51 | 1016.4 |
| 20260506200006 | 82 | 308 | 0.9 | 2.6 | 0.00 | 0.00 | 0.00 | 51 | 1016.5 |
| 20260506195712 | 82 | 298 | 0.0 | 2.6 | 0.00 | 0.00 | 0.00 | 50 | 1016.3 |
| 20260506195506 | 82 | 292 | 1.7 | 2.6 | 0.00 | 0.00 | 0.00 | 50 | 1016.3 |
| 20260506195213 | 83 | 287 | 0.0 | 2.6 | 0.00 | 0.00 | 0.00 | 50 | 1016.2 |
| 20260506195007 | 83 | 293 | 1.7 | 2.6 | 0.00 | 0.00 | 0.00 | 50 | 1016.4 |
| 20260506194712 | 83 | 295 | 0.9 | 3.5 | 0.00 | 0.00 | 0.00 | 50 | 1016.2 |
| 20260506194507 | 83 | 297 | 0.0 | 3.5 | 0.00 | 0.00 | 0.00 | 50 | 1016.2 |
| 20260506194212 | 83 | 297 | 2.6 | 4.3 | 0.00 | 0.00 | 0.00 | 49 | 1016.5 |
| 20260506194006 | 83 | 309 | 0.9 | 4.3 | 0.00 | 0.00 | 0.00 | 49 | 1016.2 |
| 20260506193712 | 83 | 322 | 0.0 | 4.3 | 0.00 | 0.00 | 0.00 | 49 | 1016.3 |
| 20260506193506 | 83 | 321 | 1.7 | 4.3 | 0.00 | 0.00 | 0.00 | 47 | 1016.1 |
| 20260506193007 | 84 | 313 | 2.6 | 3.5 | 0.00 | 0.00 | 0.00 | 47 | 1016.3 |
| 20260506192713 | 85 | 310 | 1.7 | 3.5 | 0.00 | 0.00 | 0.00 | 48 | 1016.4 |
| 20260506192507 | 84 | 303 | 0.0 | 5.2 | 0.00 | 0.00 | 0.00 | 48 | 1016.4 |
| 20260506192213 | 84 | 299 | 0.9 | 5.2 | 0.00 | 0.00 | 0.00 | 48 | 1016.2 |
| 20260506192007 | 84 | 306 | 2.6 | 5.2 | 0.00 | 0.00 | 0.00 | 48 | 1016.4 |
| 20260506191715 | 84 | 302 | 1.7 | 5.2 | 0.00 | 0.00 | 0.00 | 48 | 1016.2 |
| 20260506191506 | 84 | 298 | 2.6 | 5.2 | 0.00 | 0.00 | 0.00 | 49 | 1016.5 |
| 20260506191213 | 83 | 295 | 0.0 | 2.6 | 0.00 | 0.00 | 0.00 | 50 | 1016.4 |
| 20260506191007 | 83 | 291 | 1.7 | 5.2 | 0.00 | 0.00 | 0.00 | 49 | 1016.2 |
| 20260506190713 | 83 | 294 | 1.7 | 5.2 | 0.00 | 0.00 | 0.00 | 48 | 1016.2 |
| 20260506190507 | 83 | 306 | 2.6 | 5.2 | 0.00 | 0.00 | 0.00 | 49 | 1016.3 |
| 20260506190212 | 84 | 310 | 0.9 | 5.2 | 0.00 | 0.00 | 0.00 | 48 | 1016.3 |
| 20260506190007 | 84 | 300 | 1.7 | 3.5 | 0.00 | 0.00 | 0.00 | 48 | 1016.3 |
| 20260506185712 | 85 | 305 | 1.7 | 3.5 | 0.00 | 0.00 | 0.00 | 47 | 1016.3 |
| 20260506185507 | 85 | 301 | 1.7 | 4.3 | 0.00 | 0.00 | 0.00 | 47 | 1016.4 |
| 20260506185007 | 85 | 298 | 0.0 | 7.0 | 0.00 | 0.00 | 0.00 | 47 | 1016.4 |
| 20260506184712 | 85 | 278 | 1.7 | 7.0 | 0.00 | 0.00 | 0.00 | 46 | 1016.3 |
| 20260506184506 | 86 | 278 | 2.6 | 7.0 | 0.00 | 0.00 | 0.00 | 46 | 1016.3 |
| 20260506184212 | 86 | 282 | 4.3 | 7.0 | 0.00 | 0.00 | 0.00 | 46 | 1016.4 |
| 20260506184008 | 86 | 277 | 2.6 | 5.2 | 0.00 | 0.00 | 0.00 | 46 | 1016.3 |
| 20260506183713 | 87 | 297 | 1.7 | 4.3 | 0.00 | 0.00 | 0.00 | 46 | 1016.3 |
| 20260506183507 | 87 | 297 | 1.7 | 4.3 | 0.00 | 0.00 | 0.00 | 47 | 1016.3 |
| 20260506183212 | 87 | 296 | 2.6 | 4.3 | 0.00 | 0.00 | 0.00 | 46 | 1016.4 |
| 20260506183006 | 87 | 309 | 2.6 | 3.5 | 0.00 | 0.00 | 0.00 | 48 | 1016.5 |
| 20260506182712 | 86 | 304 | 0.9 | 5.2 | 0.00 | 0.00 | 0.00 | 50 | 1016.4 |
| 20260506182506 | 85 | 307 | 0.9 | 5.2 | 0.00 | 0.00 | 0.00 | 51 | 1016.5 |
| 20260506182212 | 84 | 321 | 0.9 | 6.1 | 0.00 | 0.00 | 0.00 | 50 | 1016.4 |
| 20260506182006 | 84 | 309 | 2.6 | 6.1 | 0.00 | 0.00 | 0.00 | 50 | 1016.4 |
| 20260506181507 | 85 | 290 | 1.7 | 6.1 | 0.00 | 0.00 | 0.00 | 48 | 1016.6 |
| 20260506181212 | 85 | 269 | 2.6 | 6.1 | 0.00 | 0.00 | 0.00 | 48 | 1016.5 |
| 20260506181006 | 85 | 285 | 2.6 | 6.1 | 0.00 | 0.00 | 0.00 | 48 | 1016.4 |